sat.trackr.live / text

‹ back to catalog

STARLINK-1583

NORAD 46064 · 2020-055AP

PAYLOAD ACTIVE UNKNOWN

§ Identity

Operator
Country
US
Launch date
2020-08-07
Launch site
AFETR
Launch vehicle
Mass (kg)
RCS (m²)

Purposes: comms

External: N2YO · Heavens-Above · Gunter

§ Orbital elements

Epoch: 2026-05-25T02:40:51.254112Z

Period
94.11 min
Inclination
53.1608°
Eccentricity
0.0001445
Mean motion
15.30187986 rev/d
Perigee alt
474.3 km
Apogee alt
476.2 km
Semi-major
6,853.4 km
B*
2.9000e-5
RAAN
118.8912°
Arg perigee
96.7664°
Mean anomaly
263.3501°
Rev number
32,076

§ Raw data

STARLINK-15831 46064U 20055AP  26145.11170433  .00000499  00000+0  29000-4 0  99962 46064  53.1608 118.8912 0001445  96.7664 263.3501 15.30187986320763

JSON: /api/v1/satellites/46064 · /tle

For live sub-satellite position, see the globe view (requires WebGL).

§ Visibility from observer

Set your observer location to see the next 7 days of passes ≥ 10°. The values pass through the URL so the page stays shareable.

No JS? Fill the form by hand. The geolocation button needs JavaScript.